User: anonymous   Login
Location: Mt. Chestnut Observatory
(40.9038°N, 79.9956°W)
Time: 13:41:38
(UTC-05:00)
Language:

Cosmos 2034 Rocket - Orbit

View from above orbital plane
View from above orbital plane
View from above satellite
View from above satellite

Ground track
Ground track

The orbit data is extracted from the following two-line orbital elements,

1 20150U 89059B   14325.80341037  .00000135  00000-0  12442-3 0   738
2 20150 082.9412 070.2295 0029015 025.4611 132.3728 13.75589051271377
Epoch (UTC): 21 November 2014 19:16:54
Eccentricity: 0.0029015
inclination: 82.9412°
perigee height: 958 km
apogee height: 1001 km
right ascension of ascending node: 70.2295°
argument of perigee: 25.4611°
revolutions per day: 13.75589051
mean anomaly at epoch: 132.3728°
orbit number at epoch: 27137

The dashed part of the orbit path shows where the satellite is in the earth's shadow,  

DLR